Skip Page Navigation
NASA JPL Caltech
NASA Logo - Jet Propulsion Laboratory + View the NASA Portal
+ Near-Earth Object (NEO) Program
Search JPL
JPL Home Earth Solar System Stars & Galaxies Technology
JPL Solar System Dynamics
BODIES ORBITS EPHEMERIDES TOOLS PHYSICAL DATA DISCOVERY FAQ SITE MAP
JPL Small-Body Database Browser
Search: [ help ]  
5626 (1991 FE)
Classification: Amor [NEO]          SPK-ID: 2005626
Ephemeris | Orbit Diagram | Orbital Elements | Physical Parameters | Discovery Circumstances | Close-Approach Data ]

[ show orbit diagram ]
Orbital Elements at Epoch 2457400.5 (2016-Jan-13.0) TDB
Reference: JPL 350 (heliocentric ecliptic J2000)
 Element Value Uncertainty (1-sigma)   Units 
e .4539379517372522 2.2846e-08  
a 2.195216037710317 8.0283e-09 au
q 1.198724165931329 5.1027e-08 au
i 3.85413768533166 4.1554e-06 deg
node 173.2636327591964 5.0903e-05 deg
peri 231.4099699714426 5.1313e-05 deg
M 310.754525488263 7.333e-06 deg
tp 2457563.009275054037
(2016-Jun-23.50927505)
2.4842e-05 JED
period 1187.99421874816
3.25
6.517e-06
1.784e-08
d
yr
n .3030317776961468 1.6624e-09 deg/d
Q 3.191707909489305 1.1673e-08 au
  Orbit Determination Parameters
   # obs. used (total)      1881  
   data-arc span      16380 days (44.85 yr)  
   first obs. used      1970-09-08  
   last obs. used      2015-07-14  
   planetary ephem.      DE431  
   SB-pert. ephem.      SB431-BIG16  
   condition code      0  
   fit RMS      .48995  
   data source      ORB  
   producer      Otto Matic  
   solution date      2015-Sep-02 14:16:30  

Additional Information
 Earth MOID = .213775 au 
 Jupiter MOID = 2.22965 au 
 T_jup = 3.525 
[ show covariance matrix ]

Ephemeris | Orbit Diagram | Orbital Elements | Physical Parameters | Discovery Circumstances | Close-Approach Data ]

Physical Parameter Table
Parameter Symbol Value Units Sigma Reference Notes
absolute magnitude H 14.2 mag n/a MPO240243  
rotation period rot_per 2.4606 h n/a LCDB (Rev. 2015-December); Warner et al., 2009 Result based on less than full coverage, so that the period may be wrong by 30 percent or so.
Published Reference List:
[Krugly, Yu.N.; Bel'skaya, I.N.; Shevchenko, V.G.; et al. (2002) Icarus 158, 294-304.]
SMASSII spectral type spec_B S   n/a EAR-A-5-DDR-TAXONOMY-V4.0 based on a high-resolution spectrum by Xu et al. (1995) or Bus and Binzel (2002)

5626 (1991 FE)          Discovered 1991-Mar-18 by Spacewatch at Kitt Peak
Reference: DISCOVERY.DBLast Updated: 2013-09-05

[ show close-approach data ]
Alternate Designations
 1991 FE = 1970 RA 
Ephemeris | Orbit Diagram | Orbital Elements | Physical Parameters | Discovery Circumstances | Close-Approach Data ]
ABOUT SSD CREDITS/AWARDS PRIVACY/COPYRIGHT GLOSSARY LINKS
FirstGov 2016-Feb-13 10:55 UT
(server date/time)  
NASA Home Page
Site Manager:   Ryan S. Park
Webmaster  Alan B. Chamberlin